Fulton Cnty AP, Rochester, IN, IN

3:51 PM EDT on April 24, 2017 (GMT -0400)
Fulton County

Weather History for KRCR - December, 2013

Change the Weather History Date:

Saturday, December 28, 2013

  Actual Average Record
Temperature  
Mean Temperature 42 °F -  
Max Temperature 50 °F 33 °F 50 °F (2013)
Min Temperature 35 °F 17 °F 23 °F (2016)
Degree Days  
Heating Degree Days 22    
Moisture  
Dew Point 32 °F    
Average Humidity 69    
Maximum Humidity 87    
Minimum Humidity 54    
Precipitation  
Precipitation 0.00 in - - ()
Sea Level Pressure  
Sea Level Pressure 30.08 in    
Wind  
Wind Speed 10 mph (SSW)    
Max Wind Speed 13 mph    
Max Gust Speed 21 mph    
Visibility 10 miles    
Events      
Averages and records for this station are not official NWS values.
T = Trace of Precipitation, MM = Missing Value Source: NWS Daily Summary

Daily Weather History Graph

Daily Weather History Graph

Search for Another Location

Airport or City:

Trip Planner

Search our weather history database for the weather conditions in past years. The results will help you decide how hot, cold, wet, or windy it might be!

Date:

Astronomy

Dec. 28, 2013 Rise Set
Actual Time 8:09 AM EST 5:23 PM EST
Civil Twilight 7:38 AM EST 5:55 PM EST
Nautical Twilight 7:03 AM EST 6:29 PM EST
Astronomical Twilight 6:29 AM EST 7:03 PM EST
Moon 3:44 AM EST (12/28) 2:15 PM EST (12/28)
Length of Visible Light 10h 16m
Length of Day
9h 14m
Waning Crescent, 19% of the Moon is Illuminated
Dec 28
Waning Crescent
Jan 1
New
Jan 7
First Quarter
Jan 15
Full
Jan 24
Last Quarter

Hourly Weather History & Observations

Time (EST) Temp. Windchill Dew Point Humidity Pressure Visibility Wind Dir Wind Speed Gust Speed Precip Events Conditions
12:15 AM 37.4 °F 30.8 °F 32.0 °F 81% 30.16 in 10.0 mi SW 9.2 mph - N/A   Clear
12:35 AM 37.4 °F 30.8 °F 32.0 °F 81% 30.15 in 10.0 mi SW 9.2 mph - N/A   Clear
12:55 AM 37.4 °F 30.8 °F 32.0 °F 81% 30.14 in 10.0 mi SW 9.2 mph - N/A   Clear
1:15 AM 39.2 °F 32.0 °F 32.0 °F 75% 30.13 in 10.0 mi SW 11.5 mph - N/A   Clear
1:35 AM 39.2 °F 33.0 °F 32.0 °F 75% 30.13 in 10.0 mi SW 9.2 mph - N/A   Clear
1:55 AM 41.0 °F 35.2 °F 32.0 °F 70% 30.13 in 10.0 mi WSW 9.2 mph - N/A   Clear
2:15 AM 41.0 °F 34.7 °F 32.0 °F 70% 30.13 in 10.0 mi SW 10.4 mph - N/A   Clear
2:35 AM 39.2 °F 33.0 °F 32.0 °F 75% 30.13 in 10.0 mi SW 9.2 mph - N/A   Clear
2:55 AM 39.2 °F 32.5 °F 32.0 °F 75% 30.13 in 10.0 mi SW 10.4 mph 16.1 mph N/A   Clear
3:15 AM 39.2 °F 32.0 °F 32.0 °F 75% 30.13 in 10.0 mi SW 11.5 mph 16.1 mph N/A   Clear
3:35 AM 39.2 °F 33.6 °F 32.0 °F 75% 30.13 in 10.0 mi WSW 8.1 mph - N/A   Clear
3:55 AM 39.2 °F 32.5 °F 32.0 °F 75% 30.13 in 10.0 mi SW 10.4 mph - N/A   Clear
4:15 AM 39.2 °F 32.5 °F 32.0 °F 75% 30.13 in 10.0 mi SW 10.4 mph - N/A   Clear
4:35 AM 37.4 °F 31.4 °F 32.0 °F 81% 30.13 in 10.0 mi SW 8.1 mph - N/A   Clear
4:55 AM 37.4 °F 30.3 °F 32.0 °F 81% 30.13 in 10.0 mi SW 10.4 mph - N/A   Clear
5:15 AM 37.4 °F 29.8 °F 32.0 °F 81% 30.13 in 10.0 mi SW 11.5 mph - N/A   Clear
5:35 AM 37.4 °F 30.3 °F 32.0 °F 81% 30.14 in 10.0 mi SW 10.4 mph - N/A   Clear
5:55 AM 37.4 °F 29.3 °F 32.0 °F 81% 30.14 in 10.0 mi SW 12.7 mph - N/A   Clear
6:15 AM 37.4 °F 29.8 °F 32.0 °F 81% 30.15 in 10.0 mi SW 11.5 mph - N/A   Clear
6:35 AM 37.4 °F 30.8 °F 32.0 °F 81% 30.15 in 10.0 mi SW 9.2 mph - N/A   Clear
6:55 AM 37.4 °F 29.8 °F 32.0 °F 81% 30.14 in 10.0 mi SW 11.5 mph - N/A   Clear
7:15 AM 37.4 °F 30.3 °F 32.0 °F 81% 30.15 in 10.0 mi SW 10.4 mph - N/A   Clear
7:35 AM 35.6 °F 29.9 °F 32.0 °F 87% 30.14 in 10.0 mi SW 6.9 mph - N/A   Clear
7:55 AM 35.6 °F 29.9 °F 32.0 °F 87% 30.14 in 10.0 mi SW 6.9 mph - N/A   Clear
8:15 AM 35.6 °F 29.9 °F 32.0 °F 87% 30.14 in 10.0 mi SW 6.9 mph - N/A   Clear
8:35 AM 37.4 °F 31.4 °F 32.0 °F 81% 30.14 in 10.0 mi SW 8.1 mph - N/A   Clear
8:55 AM 37.4 °F 31.4 °F 32.0 °F 81% 30.14 in 10.0 mi SW 8.1 mph - N/A   Clear
9:15 AM 37.4 °F 30.3 °F 32.0 °F 81% 30.14 in 10.0 mi SW 10.4 mph - N/A   Clear
9:35 AM 39.2 °F 32.5 °F 32.0 °F 75% 30.14 in 10.0 mi SSW 10.4 mph - N/A   Clear
9:55 AM 41.0 °F 35.2 °F 32.0 °F 70% 30.14 in 10.0 mi SW 9.2 mph - N/A   Clear
10:15 AM 41.0 °F 34.7 °F 32.0 °F 70% 30.14 in 10.0 mi SSW 10.4 mph - N/A   Clear
10:35 AM 42.8 °F 37.5 °F 32.0 °F 66% 30.14 in 10.0 mi SW 9.2 mph - N/A   Clear
10:55 AM 42.8 °F 37.0 °F 32.0 °F 66% 30.14 in 10.0 mi SW 10.4 mph 17.3 mph N/A   Clear
11:15 AM 42.8 °F 36.2 °F 32.0 °F 66% 30.14 in 10.0 mi SW 12.7 mph - N/A   Clear
11:35 AM 44.6 °F 38.8 °F 32.0 °F 61% 30.13 in 10.0 mi SSW 11.5 mph - N/A   Clear
11:55 AM 44.6 °F 38.4 °F 32.0 °F 61% 30.12 in 10.0 mi SSW 12.7 mph 17.3 mph N/A   Clear
12:15 PM 46.4 °F 41.1 °F 33.8 °F 62% 30.10 in 10.0 mi SSW 11.5 mph - N/A   Clear
12:35 PM 46.4 °F 41.5 °F 33.8 °F 62% 30.09 in 10.0 mi SW 10.4 mph 16.1 mph N/A   Clear
12:55 PM 48.2 °F - 33.8 °F 58% 30.08 in 10.0 mi SSW 9.2 mph - N/A   Clear
1:15 PM 50.0 °F - 33.8 °F 54% 30.07 in 10.0 mi SSW 12.7 mph 16.1 mph N/A   Clear
1:35 PM 50.0 °F - 33.8 °F 54% 30.06 in 10.0 mi SSW 10.4 mph - N/A   Clear
1:55 PM 48.2 °F - 33.8 °F 58% 30.07 in 10.0 mi SW 12.7 mph - N/A   Clear
2:15 PM 48.2 °F - 33.8 °F 58% 30.07 in 10.0 mi SSW 11.5 mph - N/A   Clear
2:35 PM 50.0 °F - 33.8 °F 54% 30.06 in 10.0 mi SSW 12.7 mph 18.4 mph N/A   Clear
2:55 PM 50.0 °F - 33.8 °F 54% 30.06 in 10.0 mi SSW 12.7 mph 18.4 mph N/A   Clear
3:15 PM 50.0 °F - 33.8 °F 54% 30.05 in 10.0 mi SSW 8.1 mph - N/A   Clear
3:35 PM 50.0 °F - 33.8 °F 54% 30.05 in 10.0 mi SSW 9.2 mph - N/A   Clear
3:55 PM 50.0 °F - 33.8 °F 54% 30.04 in 10.0 mi SSW 8.1 mph - N/A   Clear
4:15 PM 48.2 °F - 33.8 °F 58% 30.03 in 10.0 mi SSW 9.2 mph - N/A   Clear
4:35 PM 50.0 °F - 33.8 °F 54% 30.03 in 10.0 mi SSW 8.1 mph - N/A   Clear
4:55 PM 46.4 °F 42.9 °F 33.8 °F 62% 30.04 in 10.0 mi SSW 6.9 mph - N/A   Clear
5:15 PM 46.4 °F 42.9 °F 33.8 °F 62% 30.02 in 10.0 mi South 6.9 mph - N/A   Clear
5:35 PM 44.6 °F 39.7 °F 33.8 °F 66% 30.03 in 10.0 mi South 9.2 mph - N/A   Clear
5:55 PM 44.6 °F 39.2 °F 32.0 °F 61% 30.03 in 10.0 mi SSW 10.4 mph - N/A   Clear
6:15 PM 44.6 °F 38.8 °F 32.0 °F 61% 30.03 in 10.0 mi South 11.5 mph 16.1 mph N/A   Clear
6:35 PM 44.6 °F 39.7 °F 32.0 °F 61% 30.02 in 10.0 mi South 9.2 mph - N/A   Clear
6:55 PM 42.8 °F 38.0 °F 32.0 °F 66% 30.01 in 10.0 mi South 8.1 mph - N/A   Clear
7:15 PM 44.6 °F 39.2 °F 32.0 °F 61% 30.01 in 10.0 mi South 10.4 mph - N/A   Clear
7:35 PM 42.8 °F 37.0 °F 32.0 °F 66% 30.01 in 10.0 mi South 10.4 mph - N/A   Clear
7:55 PM 42.8 °F 36.2 °F 32.0 °F 66% 30.01 in 10.0 mi South 12.7 mph 20.7 mph N/A   Clear
8:15 PM 42.8 °F 36.6 °F 32.0 °F 66% 30.00 in 10.0 mi South 11.5 mph 18.4 mph N/A   Clear
8:35 PM 42.8 °F 36.2 °F 32.0 °F 66% 30.00 in 10.0 mi SSW 12.7 mph 20.7 mph N/A   Clear
8:55 PM 42.8 °F 36.2 °F 32.0 °F 66% 29.98 in 10.0 mi SSW 12.7 mph 18.4 mph N/A   Clear
9:15 PM 42.8 °F 37.0 °F 30.2 °F 61% 29.98 in 10.0 mi SSW 10.4 mph 17.3 mph N/A   Clear
9:35 PM 41.0 °F 33.9 °F 32.0 °F 70% 29.97 in 10.0 mi South 12.7 mph 17.3 mph N/A   Clear
9:55 PM 41.0 °F 33.9 °F 32.0 °F 70% 29.95 in 10.0 mi SSW 12.7 mph - N/A   Clear
10:15 PM 41.0 °F 35.2 °F 32.0 °F 70% 29.95 in 10.0 mi SSW 9.2 mph 19.6 mph N/A   Clear
10:35 PM 42.8 °F 36.6 °F 32.0 °F 66% 29.94 in 10.0 mi SSW 11.5 mph 19.6 mph N/A   Clear
10:55 PM 41.0 °F 34.3 °F 32.0 °F 70% 29.94 in 10.0 mi SSW 11.5 mph - N/A   Clear
11:15 PM 41.0 °F 34.7 °F 32.0 °F 70% 29.93 in 10.0 mi SSW 10.4 mph 17.3 mph N/A   Clear
11:35 PM 41.0 °F 34.7 °F 30.2 °F 65% 29.92 in 10.0 mi SSW 10.4 mph - N/A   Clear
11:55 PM 41.0 °F 34.7 °F 30.2 °F 65% 29.91 in 10.0 mi SSW 10.4 mph 16.1 mph N/A   Clear